FW6053 Weather Reports


time (UTC)temp
C
wind
direction
speed
KPH
gust
KPH
rain 1hr
cm
rain 24hr
cm
rain mn
cm
humidity
%
barometer
mb
20260508163053 15 293 4.8 12.9 0.00 0.00 0.00 48 1017.0
20260508161551 15 217 4.8 14.5 0.00 0.00 0.00 47 1016.8
20260508160121 15 248 6.4 17.7 0.00 0.00 0.00 47 1016.8
20260508154557 15 265 4.8 17.7 0.00 0.00 0.00 48 1016.8
20260508153054 15 246 8.0 19.3 0.00 0.00 0.00 49 1016.8
20260508151557 15 227 4.8 16.1 0.00 0.00 0.00 49 1016.6
20260508150053 15 259 6.4 17.7 0.00 0.00 0.00 51 1016.6
20260508144555 15 298 8.0 20.9 0.00 0.03 0.00 50 1016.7
20260508143104 15 278 3.2 16.1 0.00 0.03 0.00 54 1016.6
20260508141556 15 253 4.8 22.5 0.00 0.03 0.00 53 1016.6
20260508140051 15 255 4.8 16.1 0.00 0.03 0.00 53 1016.5
20260508134552 15 247 4.8 14.5 0.00 0.03 0.00 54 1016.3
20260508133057 15 188 6.4 20.9 0.00 0.03 0.00 54 1016.3
20260508131552 15 201 6.4 19.3 0.00 0.03 0.00 54 1016.3
20260508130100 13 232 6.4 16.1 0.00 0.03 0.00 57 1016.2
20260508124554 13 277 8.0 22.5 0.00 0.03 0.00 56 1016.2
20260508123057 13 192 9.7 17.7 0.00 0.03 0.00 58 1016.2
20260508121605 13 226 4.8 19.3 0.00 0.03 0.00 59 1016.1
20260508120054 13 254 9.7 20.9 0.00 0.03 0.00 58 1016.2
20260508114554 13 327 9.7 20.9 0.00 0.03 0.00 59 1016.0
20260508113052 13 229 9.7 20.9 0.00 0.03 0.00 61 1015.9
20260508111553 13 305 9.7 29.0 0.00 0.03 0.00 61 1015.8
20260508110059 13 280 9.7 20.9 0.00 0.03 0.00 62 1015.8
20260508104555 13 242 8.0 22.5 0.00 0.03 0.00 64 1015.6
20260508103055 12 272 6.4 17.7 0.00 0.03 0.00 68 1015.6
20260508101556 12 236 6.4 19.3 0.00 0.03 0.00 70 1015.7
20260508100058 12 181 12.9 24.1 0.00 0.00 0.00 69 1015.5
20260508094605 11 206 6.4 20.9 0.00 0.00 0.00 73 1015.6
20260508093053 11 190 8.0 20.9 0.00 0.00 0.00 72 1015.4
20260508091605 11 182 9.7 17.7 0.00 0.00 0.00 74 1015.4
20260508090054 11 265 8.0 19.3 0.00 0.00 0.00 75 1015.3
20260508084555 11 213 8.0 16.1 0.00 0.00 0.00 79 1015.3
20260508083132 10 195 6.4 16.1 0.00 0.00 0.00 79 1015.2
20260508081555 10 244 6.4 19.3 0.00 0.00 0.00 80 1015.1
20260508074555 10 234 6.4 17.7 0.00 0.00 0.00 83 1014.8
20260508073100 10 248 6.4 17.7 0.00 0.00 0.00 84 1014.6
20260508071557 10 198 8.0 20.9 0.00 0.00 0.00 86 1014.5
20260508070058 9 199 6.4 17.7 0.00 0.00 0.00 87 1014.3
20260508064607 9 252 3.2 12.9 0.00 0.00 0.00 87 1014.1
20260508063058 9 249 4.8 12.9 0.00 0.00 0.00 88 1014.0
20260508061559 8 233 1.6 8.0 0.00 0.00 0.00 89 1014.0
20260508060107 8 0 1.6 4.8 0.00 0.00 0.00 89 1013.7
20260508054600 8 0 1.6 6.4 0.00 0.00 0.00 89 1013.5
20260508053102 7 0 0.0 4.8 0.00 0.00 0.00 88 1013.2
20260508051550 8 0 0.0 4.8 0.00 0.00 0.00 88 1013.1
20260508050058 8 259 0.0 4.8 0.00 0.00 0.00 88 1013.0
20260508044552 8 0 3.2 9.7 0.00 0.00 0.00 88 1013.1
20260508043052 8 250 1.6 6.4 0.00 0.00 0.00 88 1013.0
20260508041555 8 242 3.2 6.4 0.00 0.00 0.00 88 1013.0
20260508040110 8 0 0.0 8.0 0.00 0.00 0.00 87 1012.7
20260508034557 8 198 3.2 12.9 0.00 0.00 0.00 87 1012.5
20260508033101 8 215 3.2 12.9 0.00 0.00 0.00 87 1012.5
20260508031551 8 240 3.2 9.7 0.00 0.00 0.00 86 1012.5
20260508030108 8 237 3.2 16.1 0.00 0.00 0.00 86 1012.5
20260508024604 8 267 6.4 12.9 0.00 0.00 0.00 85 1012.5
20260508023054 8 209 1.6 4.8 0.00 0.00 0.00 84 1012.6
20260508021552 8 0 0.0 4.8 0.00 0.00 0.00 84 1012.5
20260508020053 8 192 1.6 4.8 0.00 0.00 0.00 84 1012.5
20260508014553 8 197 0.0 4.8 0.00 0.00 0.00 85 1012.5
20260508013055 8 197 1.6 3.2 0.00 0.00 0.00 85 1012.4
20260508011602 8 0 0.0 1.6 0.00 0.00 0.00 85 1012.5
20260508010105 8 0 0.0 3.2 0.00 0.00 0.00 85 1012.5
20260508004602 8 197 1.6 6.4 0.00 0.00 0.00 85 1012.5
20260508003108 8 228 0.0 4.8 0.00 0.00 0.00 85 1012.5
20260508001555 8 227 1.6 6.4 0.00 0.00 0.00 85 1012.4
20260508000053 8 246 3.2 8.0 0.00 0.00 0.00 85 1012.4
20260507234555 8 241 0.0 9.7 0.00 0.00 0.00 86 1012.4
20260507233052 7 0 0.0 3.2 0.00 0.00 0.00 85 1012.5
20260507231608 8 0 0.0 1.6 0.00 0.00 0.00 84 1012.3
20260507230059 8 0 0.0 3.2 0.00 0.00 0.00 84 1012.5
20260507224605 8 0 0.0 3.2 0.00 0.00 0.00 83 1012.3
20260507223053 8 0 0.0 1.6 0.00 0.00 0.00 82 1012.4
20260507221556 8 0 0.0 3.2 0.00 0.00 0.00 81 1012.5
20260507220056 9 0 0.0 1.6 0.00 0.00 0.00 81 1012.3
20260507214607 9 212 0.0 4.8 0.00 0.00 0.00 81 1012.4
20260507213107 9 220 0.0 6.4 0.00 0.00 0.00 80 1012.3
20260507211555 10 213 0.0 4.8 0.00 0.00 0.00 80 1012.2
20260507210056 10 196 1.6 11.3 0.00 0.00 0.00 79 1012.2
20260507204601 10 196 3.2 8.0 0.00 0.00 0.00 79 1012.2
20260507203053 10 227 0.0 4.8 0.00 0.00 0.00 80 1012.2
20260507201553 10 0 0.0 4.8 0.00 0.00 0.00 79 1011.9
20260507200053 10 218 1.6 8.0 0.00 0.00 0.00 78 1011.9
20260507194552 10 230 1.6 11.3 0.00 0.00 0.00 77 1011.9
20260507193106 10 234 4.8 16.1 0.00 0.00 0.00 77 1011.8
20260507191554 11 200 6.4 16.1 0.00 0.00 0.00 76 1011.6
20260507184556 11 188 6.4 14.5 0.00 0.00 0.00 75 1011.5
20260507183057 11 170 3.2 12.9 0.00 0.00 0.00 75 1011.5
20260507181553 11 186 4.8 9.7 0.00 0.00 0.00 74 1011.5
20260507180103 11 188 4.8 12.9 0.00 0.00 0.00 74 1011.3
20260507174552 11 232 3.2 11.3 0.00 0.00 0.00 74 1011.4
20260507173057 11 199 3.2 9.7 0.00 0.00 0.00 75 1011.6
20260507171556 10 237 1.6 6.4 0.00 0.00 0.00 76 1011.5
20260507170054 10 241 3.2 11.3 0.00 0.00 0.00 76 1011.7
20260507164556 10 226 6.4 14.5 0.00 0.00 0.00 77 1011.8